| time (UTC) | temp C | wind direction | speed KPH | gust KPH | rain 1hr cm | rain 24hr cm | rain mn cm | humidity % | barometer mb |
| 20260508110903 | 12 | 221 | 0.0 | 3.2 | 0.18 | 0.33 | 0.25 | 99 | 1008.6 |
| 20260508105903 | 12 | 290 | 0.0 | 0.0 | 0.20 | 0.33 | 0.25 | 99 | 1008.6 |
| 20260508104403 | 12 | 291 | 0.0 | 0.0 | 0.23 | 0.33 | 0.25 | 99 | 1008.8 |
| 20260508103903 | 12 | 291 | 0.0 | 0.0 | 0.20 | 0.33 | 0.23 | 99 | 1008.9 |
| 20260508103403 | 12 | 291 | 0.0 | 0.0 | 0.20 | 0.33 | 0.23 | 99 | 1009.0 |
| 20260508102903 | 12 | 291 | 0.0 | 3.2 | 0.15 | 0.28 | 0.20 | 99 | 1009.0 |
| 20260508102403 | 12 | 293 | 8.0 | 14.5 | 0.15 | 0.25 | 0.18 | 99 | 1009.0 |
| 20260508101904 | 12 | 246 | 11.3 | 19.3 | 0.08 | 0.20 | 0.13 | 99 | 1009.1 |
| 20260508101404 | 12 | 252 | 12.9 | 19.3 | 0.05 | 0.15 | 0.08 | 99 | 1009.0 |
| 20260508100904 | 12 | 248 | 12.9 | 19.3 | 0.05 | 0.15 | 0.08 | 99 | 1008.9 |
| 20260508095903 | 12 | 211 | 11.3 | 19.3 | 0.03 | 0.15 | 0.05 | 99 | 1008.8 |
| 20260508095403 | 12 | 204 | 6.4 | 11.3 | 0.03 | 0.15 | 0.05 | 99 | 1008.8 |
| 20260508094403 | 11 | 245 | 4.8 | 19.3 | 0.03 | 0.13 | 0.05 | 99 | 1008.5 |
| 20260508093904 | 11 | 281 | 11.3 | 19.3 | 0.03 | 0.13 | 0.05 | 99 | 1008.4 |
| 20260508093404 | 11 | 272 | 9.7 | 19.3 | 0.05 | 0.13 | 0.05 | 98 | 1008.4 |
| 20260508092907 | 11 | 273 | 9.7 | 19.3 | 0.05 | 0.13 | 0.05 | 98 | 1008.3 |
| 20260508092404 | 11 | 245 | 11.3 | 19.3 | 0.05 | 0.13 | 0.05 | 98 | 1008.3 |
| 20260508091903 | 11 | 294 | 9.7 | 14.5 | 0.05 | 0.13 | 0.05 | 98 | 1008.2 |
| 20260508091404 | 11 | 264 | 9.7 | 16.1 | 0.05 | 0.13 | 0.05 | 98 | 1008.2 |
| 20260508090904 | 11 | 283 | 9.7 | 19.3 | 0.05 | 0.13 | 0.05 | 98 | 1008.1 |
| 20260508090403 | 11 | 258 | 14.5 | 22.5 | 0.05 | 0.13 | 0.05 | 98 | 1007.9 |
| 20260508084903 | 11 | 270 | 4.8 | 16.1 | 0.05 | 0.13 | 0.05 | 97 | 1007.4 |
| 20260508084403 | 11 | 251 | 16.1 | 19.3 | 0.03 | 0.10 | 0.03 | 97 | 1007.5 |
| 20260508083904 | 11 | 253 | 11.3 | 19.3 | 0.03 | 0.10 | 0.03 | 97 | 1007.4 |
| 20260508082904 | 11 | 251 | 6.4 | 14.5 | 0.00 | 0.08 | 0.00 | 96 | 1007.2 |
| 20260508082403 | 12 | 262 | 3.2 | 9.7 | 0.00 | 0.08 | 0.00 | 96 | 1007.1 |
| 20260508081903 | 12 | 257 | 1.6 | 8.0 | 0.00 | 0.08 | 0.00 | 96 | 1007.1 |
| 20260508080903 | 12 | 267 | 4.8 | 11.3 | 0.00 | 0.08 | 0.00 | 95 | 1007.0 |
| 20260508080403 | 12 | 263 | 1.6 | 9.7 | 0.00 | 0.08 | 0.00 | 95 | 1006.9 |
| 20260508075904 | 12 | 245 | 4.8 | 11.3 | 0.00 | 0.08 | 0.00 | 95 | 1006.9 |
| 20260508074904 | 12 | 290 | 3.2 | 4.8 | 0.00 | 0.08 | 0.00 | 95 | 1006.9 |
| 20260508074406 | 12 | 175 | 0.0 | 0.0 | 0.00 | 0.08 | 0.00 | 95 | 1006.8 |
| 20260508073905 | 12 | 175 | 0.0 | 0.0 | 0.00 | 0.08 | 0.00 | 96 | 1006.8 |
| 20260508072904 | 12 | 175 | 0.0 | 0.0 | 0.00 | 0.08 | 0.00 | 96 | 1006.8 |
| 20260508071904 | 12 | 175 | 0.0 | 0.0 | 0.00 | 0.08 | 0.00 | 96 | 1006.8 |
| 20260508071404 | 12 | 173 | 0.0 | 0.0 | 0.00 | 0.08 | 0.00 | 96 | 1006.8 |
| 20260508070903 | 12 | 173 | 0.0 | 0.0 | 0.00 | 0.08 | 0.00 | 96 | 1006.7 |
| 20260508070404 | 12 | 173 | 0.0 | 0.0 | 0.00 | 0.08 | 0.00 | 96 | 1006.7 |
| 20260508065903 | 11 | 173 | 0.0 | 8.0 | 0.00 | 0.08 | 0.00 | 96 | 1006.7 |
| 20260508065404 | 11 | 171 | 0.0 | 0.0 | 0.00 | 0.08 | 0.00 | 96 | 1006.8 |
| 20260508064903 | 11 | 171 | 0.0 | 0.0 | 0.00 | 0.08 | 0.00 | 96 | 1006.7 |
| 20260508064404 | 11 | 171 | 0.0 | 0.0 | 0.00 | 0.08 | 0.00 | 96 | 1006.7 |
| 20260508063903 | 11 | 171 | 0.0 | 0.0 | 0.00 | 0.08 | 0.00 | 96 | 1006.7 |
| 20260508063403 | 11 | 171 | 0.0 | 0.0 | 0.00 | 0.08 | 0.00 | 96 | 1006.7 |
| 20260508062903 | 11 | 171 | 0.0 | 3.2 | 0.00 | 0.08 | 0.00 | 96 | 1006.7 |
| 20260508062404 | 11 | 171 | 0.0 | 4.8 | 0.00 | 0.08 | 0.00 | 97 | 1006.7 |
| 20260508061404 | 11 | 171 | 0.0 | 0.0 | 0.00 | 0.08 | 0.00 | 97 | 1006.8 |
| 20260508061015 | 11 | 171 | 0.0 | 0.0 | 0.00 | 0.08 | 0.00 | 97 | 1006.8 |
| 20260508060404 | 11 | 171 | 0.0 | 0.0 | 0.00 | 0.08 | 0.00 | 97 | 1006.9 |
| 20260508055903 | 11 | 171 | 0.0 | 0.0 | 0.00 | 0.08 | 0.00 | 97 | 1006.9 |
| 20260508055404 | 11 | 171 | 0.0 | 0.0 | 0.00 | 0.08 | 0.00 | 97 | 1007.0 |
| 20260508054903 | 11 | 171 | 0.0 | 0.0 | 0.00 | 0.08 | 0.00 | 97 | 1006.9 |
| 20260508054403 | 11 | 171 | 0.0 | 0.0 | 0.00 | 0.08 | 0.00 | 97 | 1006.9 |
| 20260508053903 | 11 | 171 | 0.0 | 0.0 | 0.00 | 0.08 | 0.00 | 97 | 1006.9 |
| 20260508053404 | 11 | 171 | 0.0 | 0.0 | 0.00 | 0.08 | 0.00 | 97 | 1006.9 |
| 20260508052903 | 11 | 171 | 0.0 | 0.0 | 0.00 | 0.08 | 0.00 | 97 | 1006.9 |
| 20260508052403 | 11 | 171 | 0.0 | 0.0 | 0.00 | 0.08 | 0.00 | 97 | 1006.9 |
| 20260508051904 | 11 | 171 | 0.0 | 0.0 | 0.00 | 0.08 | 0.00 | 97 | 1006.9 |
| 20260508051404 | 11 | 171 | 0.0 | 0.0 | 0.00 | 0.08 | 0.00 | 97 | 1006.9 |
| 20260508050903 | 11 | 171 | 0.0 | 1.6 | 0.00 | 0.08 | 0.00 | 97 | 1006.8 |
| 20260508050404 | 11 | 171 | 1.6 | 4.8 | 0.00 | 0.08 | 0.00 | 97 | 1006.8 |
| 20260508045403 | 11 | 169 | 3.2 | 8.0 | 0.00 | 0.08 | 0.00 | 97 | 1006.8 |
| 20260508043903 | 11 | 162 | 0.0 | 0.0 | 0.00 | 0.10 | 0.00 | 97 | 1006.7 |
| 20260508043403 | 11 | 162 | 0.0 | 0.0 | 0.00 | 0.10 | 0.00 | 96 | 1006.7 |
| 20260508042903 | 11 | 162 | 1.6 | 3.2 | 0.00 | 0.10 | 0.00 | 96 | 1006.8 |
| 20260508042403 | 11 | 146 | 3.2 | 4.8 | 0.00 | 0.10 | 0.00 | 96 | 1006.8 |
| 20260508041904 | 11 | 96 | 3.2 | 4.8 | 0.00 | 0.10 | 0.00 | 97 | 1006.8 |
| 20260508040903 | 11 | 47 | 0.0 | 0.0 | 0.00 | 0.10 | 0.00 | 97 | 1006.8 |
| 20260508040403 | 11 | 5 | 0.0 | 0.0 | 0.00 | 0.10 | 0.00 | 97 | 1006.9 |
| 20260508035904 | 11 | 5 | 0.0 | 0.0 | 0.00 | 0.10 | 0.00 | 97 | 1006.9 |
| 20260508035403 | 11 | 5 | 0.0 | 0.0 | 0.00 | 0.10 | 0.00 | 97 | 1007.0 |
| 20260508034903 | 11 | 5 | 0.0 | 0.0 | 0.00 | 0.10 | 0.00 | 97 | 1007.2 |
| 20260508034403 | 11 | 5 | 0.0 | 0.0 | 0.00 | 0.10 | 0.00 | 97 | 1007.3 |
| 20260508033404 | 11 | 5 | 0.0 | 0.0 | 0.00 | 0.10 | 0.00 | 97 | 1007.2 |
| 20260508032904 | 11 | 294 | 0.0 | 0.0 | 0.00 | 0.10 | 0.00 | 97 | 1007.2 |
| 20260508032403 | 11 | 266 | 0.0 | 0.0 | 0.00 | 0.10 | 0.00 | 96 | 1007.3 |
| 20260508031903 | 11 | 266 | 0.0 | 0.0 | 0.00 | 0.10 | 0.00 | 96 | 1007.4 |
| 20260508031403 | 11 | 266 | 0.0 | 0.0 | 0.00 | 0.10 | 0.00 | 96 | 1007.5 |
| 20260508030903 | 11 | 266 | 0.0 | 0.0 | 0.00 | 0.10 | 0.00 | 96 | 1007.6 |
| 20260508030403 | 11 | 266 | 0.0 | 0.0 | 0.00 | 0.10 | 0.00 | 96 | 1007.6 |
| 20260508025904 | 11 | 266 | 0.0 | 9.7 | 0.00 | 0.10 | 0.00 | 96 | 1007.7 |
| 20260508025403 | 11 | 281 | 0.0 | 9.7 | 0.00 | 0.10 | 0.00 | 96 | 1007.7 |
| 20260508024903 | 11 | 286 | 0.0 | 0.0 | 0.00 | 0.10 | 0.00 | 95 | 1007.7 |
| 20260508024403 | 11 | 286 | 0.0 | 0.0 | 0.00 | 0.10 | 0.00 | 95 | 1007.8 |
| 20260508023904 | 11 | 286 | 1.6 | 9.7 | 0.00 | 0.10 | 0.00 | 95 | 1007.8 |
| 20260508023403 | 11 | 279 | 1.6 | 4.8 | 0.00 | 0.10 | 0.00 | 95 | 1007.9 |
| 20260508022903 | 11 | 196 | 0.0 | 0.0 | 0.00 | 0.10 | 0.00 | 95 | 1007.9 |
| 20260508022403 | 11 | 196 | 0.0 | 8.0 | 0.00 | 0.10 | 0.00 | 95 | 1007.8 |
| 20260508021903 | 11 | 198 | 3.2 | 4.8 | 0.00 | 0.10 | 0.00 | 94 | 1007.8 |
| 20260508021403 | 12 | 198 | 0.0 | 0.0 | 0.00 | 0.10 | 0.00 | 94 | 1007.7 |
| 20260508020403 | 12 | 198 | 0.0 | 0.0 | 0.00 | 0.10 | 0.00 | 94 | 1007.7 |
| 20260508015903 | 12 | 198 | 0.0 | 0.0 | 0.00 | 0.10 | 0.00 | 94 | 1007.8 |
| 20260508014904 | 12 | 198 | 0.0 | 0.0 | 0.00 | 0.10 | 0.00 | 94 | 1008.0 |
| 20260508014404 | 12 | 198 | 0.0 | 0.0 | 0.00 | 0.10 | 0.00 | 94 | 1008.0 |
| 20260508013904 | 12 | 198 | 0.0 | 0.0 | 0.00 | 0.10 | 0.00 | 94 | 1008.0 |
| 20260508013403 | 12 | 198 | 0.0 | 0.0 | 0.00 | 0.10 | 0.00 | 94 | 1008.1 |
| 20260508012903 | 12 | 198 | 0.0 | 3.2 | 0.00 | 0.10 | 0.00 | 94 | 1008.1 |
| 20260508012404 | 12 | 198 | 0.0 | 4.8 | 0.00 | 0.10 | 0.00 | 94 | 1008.1 |
| 20260508011904 | 12 | 198 | 0.0 | 0.0 | 0.00 | 0.10 | 0.00 | 94 | 1008.1 |
| 20260508011403 | 12 | 198 | 0.0 | 1.6 | 0.00 | 0.10 | 0.00 | 94 | 1008.1 |
| 20260508010404 | 12 | 197 | 1.6 | 4.8 | 0.00 | 0.10 | 0.00 | 94 | 1008.3 |
| 20260508004904 | 12 | 209 | 0.0 | 0.0 | 0.00 | 0.10 | 0.00 | 93 | 1008.5 |
| 20260508004404 | 12 | 209 | 0.0 | 0.0 | 0.00 | 0.10 | 0.00 | 93 | 1008.6 |
| 20260508003403 | 12 | 209 | 0.0 | 4.8 | 0.00 | 0.10 | 0.00 | 93 | 1008.7 |
| 20260508002404 | 12 | 222 | 1.6 | 4.8 | 0.00 | 0.10 | 0.00 | 93 | 1008.8 |
| 20260508001404 | 12 | 342 | 0.0 | 0.0 | 0.00 | 0.10 | 0.00 | 93 | 1008.8 |
| 20260508000904 | 12 | 342 | 0.0 | 0.0 | 0.00 | 0.10 | 0.00 | 93 | 1008.6 |
| 20260508000405 | 12 | 342 | 0.0 | 0.0 | 0.00 | 0.10 | 0.00 | 93 | 1008.8 |
| 20260507235903 | 12 | 244 | 0.0 | 0.0 | 0.00 | 0.10 | 0.00 | 93 | 1008.8 |
| 20260507235403 | 12 | 244 | 0.0 | 1.6 | 0.00 | 0.10 | 0.00 | 93 | 1008.9 |
| 20260507234903 | 12 | 244 | 0.0 | 3.2 | 0.00 | 0.10 | 0.00 | 93 | 1009.0 |
| 20260507234404 | 12 | 244 | 0.0 | 0.0 | 0.00 | 0.10 | 0.00 | 94 | 1009.0 |
| 20260507233903 | 12 | 244 | 0.0 | 0.0 | 0.00 | 0.10 | 0.00 | 94 | 1009.1 |
| 20260507233403 | 12 | 244 | 0.0 | 0.0 | 0.00 | 0.10 | 0.00 | 94 | 1009.1 |
| 20260507232903 | 12 | 244 | 0.0 | 0.0 | 0.00 | 0.10 | 0.00 | 94 | 1009.1 |
| 20260507231904 | 12 | 248 | 0.0 | 0.0 | 0.00 | 0.10 | 0.00 | 94 | 1009.1 |
| 20260507230903 | 12 | 245 | 1.6 | 4.8 | 0.00 | 0.10 | 0.00 | 94 | 1009.1 |
| 20260507230403 | 12 | 232 | 0.0 | 4.8 | 0.00 | 0.10 | 0.00 | 94 | 1009.2 |
| 20260507225903 | 12 | 228 | 3.2 | 8.0 | 0.00 | 0.10 | 0.00 | 93 | 1009.3 |
| 20260507224904 | 12 | 205 | 0.0 | 0.0 | 0.00 | 0.10 | 0.00 | 94 | 1009.3 |
| 20260507224403 | 12 | 181 | 0.0 | 0.0 | 0.00 | 0.10 | 0.00 | 94 | 1009.4 |
| 20260507223903 | 12 | 180 | 1.6 | 8.0 | 0.00 | 0.10 | 0.00 | 93 | 1009.4 |
| 20260507222404 | 12 | 183 | 0.0 | 4.8 | 0.00 | 0.10 | 0.00 | 93 | 1009.4 |
| 20260507221903 | 12 | 161 | 3.2 | 9.7 | 0.00 | 0.10 | 0.00 | 93 | 1009.4 |
| 20260507221404 | 12 | 163 | 3.2 | 4.8 | 0.00 | 0.10 | 0.00 | 92 | 1009.4 |
| 20260507220903 | 12 | 167 | 4.8 | 8.0 | 0.00 | 0.10 | 0.00 | 92 | 1009.5 |
| 20260507220403 | 12 | 159 | 3.2 | 8.0 | 0.00 | 0.10 | 0.00 | 92 | 1009.4 |
| 20260507215903 | 12 | 167 | 1.6 | 4.8 | 0.00 | 0.10 | 0.10 | 92 | 1009.4 |
| 20260507214403 | 12 | 178 | 3.2 | 4.8 | 0.00 | 0.10 | 0.10 | 92 | 1009.5 |
| 20260507213903 | 12 | 179 | 1.6 | 4.8 | 0.00 | 0.10 | 0.10 | 92 | 1009.5 |
| 20260507213403 | 13 | 181 | 3.2 | 8.0 | 0.00 | 0.10 | 0.10 | 92 | 1009.6 |
| 20260507212905 | 13 | 182 | 3.2 | 4.8 | 0.00 | 0.10 | 0.10 | 92 | 1009.6 |
| 20260507212403 | 13 | 186 | 0.0 | 4.8 | 0.00 | 0.10 | 0.10 | 92 | 1009.6 |
| 20260507211903 | 13 | 187 | 0.0 | 0.0 | 0.00 | 0.10 | 0.10 | 92 | 1009.6 |
| 20260507210903 | 13 | 187 | 0.0 | 4.8 | 0.00 | 0.10 | 0.10 | 92 | 1009.7 |
| 20260507210403 | 13 | 184 | 3.2 | 8.0 | 0.00 | 0.10 | 0.10 | 91 | 1009.8 |
| 20260507205904 | 13 | 183 | 9.7 | 12.9 | 0.00 | 0.10 | 0.10 | 90 | 1009.8 |
| 20260507205403 | 13 | 186 | 8.0 | 14.5 | 0.00 | 0.10 | 0.10 | 90 | 1009.7 |
| 20260507204904 | 13 | 186 | 1.6 | 4.8 | 0.00 | 0.10 | 0.10 | 90 | 1009.6 |
| 20260507204403 | 13 | 189 | 0.0 | 1.6 | 0.00 | 0.10 | 0.10 | 90 | 1009.5 |
| 20260507203403 | 13 | 189 | 0.0 | 0.0 | 0.00 | 0.10 | 0.10 | 90 | 1009.4 |
| 20260507202903 | 13 | 189 | 0.0 | 1.6 | 0.00 | 0.10 | 0.10 | 90 | 1009.3 |
| 20260507202403 | 13 | 189 | 1.6 | 4.8 | 0.00 | 0.10 | 0.10 | 89 | 1009.3 |
| 20260507201903 | 13 | 189 | 1.6 | 3.2 | 0.00 | 0.10 | 0.10 | 89 | 1009.3 |
| 20260507201403 | 13 | 189 | 1.6 | 4.8 | 0.00 | 0.10 | 0.10 | 89 | 1009.3 |
| 20260507200903 | 13 | 192 | 3.2 | 4.8 | 0.00 | 0.10 | 0.10 | 88 | 1009.3 |
| 20260507200403 | 14 | 192 | 4.8 | 8.0 | 0.00 | 0.10 | 0.10 | 88 | 1009.2 |
| 20260507195904 | 14 | 193 | 1.6 | 4.8 | 0.00 | 0.10 | 0.10 | 87 | 1009.2 |
| 20260507195403 | 14 | 194 | 3.2 | 4.8 | 0.00 | 0.10 | 0.10 | 87 | 1009.2 |
| 20260507194903 | 14 | 194 | 0.0 | 0.0 | 0.00 | 0.10 | 0.10 | 86 | 1009.1 |
| 20260507194404 | 14 | 194 | 0.0 | 0.0 | 0.00 | 0.10 | 0.10 | 86 | 1009.0 |
| 20260507193903 | 14 | 195 | 0.0 | 0.0 | 0.00 | 0.10 | 0.10 | 86 | 1009.0 |
| 20260507193403 | 14 | 195 | 0.0 | 0.0 | 0.00 | 0.10 | 0.10 | 86 | 1009.0 |
| 20260507192903 | 14 | 194 | 0.0 | 4.8 | 0.00 | 0.10 | 0.10 | 86 | 1008.9 |
| 20260507192404 | 14 | 195 | 3.2 | 4.8 | 0.00 | 0.10 | 0.10 | 86 | 1008.9 |
| 20260507191903 | 14 | 194 | 3.2 | 4.8 | 0.00 | 0.10 | 0.10 | 86 | 1008.9 |
| 20260507191403 | 14 | 195 | 4.8 | 9.7 | 0.00 | 0.10 | 0.10 | 86 | 1008.9 |
| 20260507190903 | 15 | 196 | 4.8 | 8.0 | 0.00 | 0.10 | 0.10 | 85 | 1008.9 |
| 20260507190404 | 15 | 190 | 3.2 | 8.0 | 0.00 | 0.10 | 0.10 | 84 | 1008.8 |
| 20260507185904 | 15 | 195 | 4.8 | 9.7 | 0.00 | 0.10 | 0.10 | 83 | 1008.7 |
| 20260507185421 | 15 | 162 | 8.0 | 9.7 | 0.00 | 0.10 | 0.10 | 83 | 1008.7 |
| 20260507184903 | 15 | 164 | 0.0 | 4.8 | 0.00 | 0.10 | 0.10 | 83 | 1008.6 |
| 20260507183904 | 15 | 190 | 1.6 | 4.8 | 0.00 | 0.10 | 0.10 | 83 | 1008.7 |
| 20260507183404 | 15 | 191 | 0.0 | 4.8 | 0.00 | 0.10 | 0.10 | 82 | 1008.6 |
| 20260507182903 | 15 | 191 | 0.0 | 3.2 | 0.00 | 0.10 | 0.10 | 83 | 1008.5 |
| 20260507182403 | 15 | 190 | 1.6 | 4.8 | 0.00 | 0.10 | 0.10 | 83 | 1008.5 |
| 20260507181904 | 15 | 192 | 0.0 | 3.2 | 0.00 | 0.10 | 0.10 | 83 | 1008.6 |
| 20260507180903 | 15 | 192 | 4.8 | 12.9 | 0.00 | 0.10 | 0.10 | 84 | 1008.6 |
| 20260507180403 | 15 | 173 | 4.8 | 8.0 | 0.00 | 0.10 | 0.10 | 85 | 1008.6 |
| 20260507175404 | 15 | 200 | 12.9 | 19.3 | 0.00 | 0.10 | 0.10 | 85 | 1008.6 |
| 20260507174904 | 15 | 152 | 4.8 | 12.9 | 0.00 | 0.10 | 0.10 | 84 | 1008.5 |
| 20260507174404 | 15 | 51 | 4.8 | 19.3 | 0.00 | 0.10 | 0.10 | 83 | 1008.4 |
| 20260507173904 | 15 | 49 | 14.5 | 22.5 | 0.00 | 0.10 | 0.10 | 84 | 1008.3 |
| 20260507173403 | 16 | 68 | 6.4 | 16.1 | 0.00 | 0.10 | 0.10 | 85 | 1008.5 |
| 20260507172903 | 16 | 123 | 6.4 | 14.5 | 0.00 | 0.10 | 0.10 | 85 | 1008.9 |
| 20260507172404 | 16 | 158 | 3.2 | 12.9 | 0.00 | 0.10 | 0.10 | 84 | 1009.0 |
| 20260507171903 | 16 | 141 | 3.2 | 9.7 | 0.00 | 0.10 | 0.10 | 83 | 1009.0 |
| 20260507171404 | 16 | 170 | 3.2 | 9.7 | 0.00 | 0.10 | 0.10 | 83 | 1008.9 |
| 20260507170903 | 16 | 172 | 0.0 | 1.6 | 0.00 | 0.10 | 0.10 | 82 | 1008.8 |
| 20260507170404 | 16 | 173 | 1.6 | 4.8 | 0.00 | 0.10 | 0.10 | 81 | 1008.7 |
| 20260507165903 | 16 | 172 | 3.2 | 11.3 | 0.00 | 0.10 | 0.10 | 79 | 1008.7 |
| 20260507165404 | 16 | 150 | 3.2 | 4.8 | 0.00 | 0.10 | 0.10 | 76 | 1008.6 |
| 20260507164903 | 16 | 81 | 0.0 | 0.0 | 0.00 | 0.10 | 0.10 | 78 | 1008.5 |
| 20260507163903 | 16 | 77 | 0.0 | 0.0 | 0.00 | 0.10 | 0.10 | 79 | 1008.4 |
| 20260507163404 | 16 | 77 | 0.0 | 0.0 | 0.00 | 0.10 | 0.10 | 80 | 1008.3 |
| 20260507162404 | 16 | 77 | 0.0 | 0.0 | 0.00 | 0.10 | 0.10 | 82 | 1008.3 |
| 20260507161904 | 16 | 76 | 0.0 | 1.6 | 0.00 | 0.10 | 0.10 | 83 | 1008.2 |
| 20260507161403 | 16 | 76 | 0.0 | 3.2 | 0.00 | 0.10 | 0.10 | 83 | 1008.2 |
| 20260507160904 | 16 | 69 | 3.2 | 8.0 | 0.00 | 0.10 | 0.10 | 82 | 1008.2 |
| 20260507155904 | 16 | 83 | 4.8 | 12.9 | 0.00 | 0.10 | 0.10 | 80 | 1008.1 |
| 20260507155404 | 16 | 19 | 3.2 | 11.3 | 0.00 | 0.10 | 0.10 | 79 | 1008.1 |
| 20260507154903 | 16 | 85 | 3.2 | 12.9 | 0.03 | 0.10 | 0.10 | 79 | 1008.1 |
| 20260507154404 | 16 | 353 | 4.8 | 11.3 | 0.05 | 0.10 | 0.10 | 77 | 1008.1 |
| 20260507153904 | 16 | 18 | 4.8 | 14.5 | 0.05 | 0.10 | 0.10 | 77 | 1008.0 |
| 20260507153404 | 16 | 6 | 11.3 | 19.3 | 0.08 | 0.10 | 0.10 | 78 | 1008.0 |
| 20260507152904 | 16 | 71 | 4.8 | 12.9 | 0.08 | 0.10 | 0.10 | 80 | 1008.1 |
| 20260507152404 | 16 | 112 | 3.2 | 9.7 | 0.08 | 0.10 | 0.10 | 81 | 1008.0 |
| 20260507151903 | 16 | 5 | 1.6 | 4.8 | 0.08 | 0.10 | 0.10 | 81 | 1008.0 |
| 20260507150904 | 16 | 321 | 9.7 | 19.3 | 0.08 | 0.10 | 0.10 | 82 | 1007.9 |
| 20260507150404 | 16 | 330 | 6.4 | 9.7 | 0.08 | 0.10 | 0.10 | 84 | 1007.8 |
| 20260507145404 | 16 | 43 | 4.8 | 24.1 | 0.08 | 0.10 | 0.10 | 83 | 1007.6 |
| 20260507144903 | 16 | 22 | 19.3 | 27.4 | 0.05 | 0.08 | 0.08 | 81 | 1007.5 |
| 20260507144404 | 16 | 13 | 11.3 | 19.3 | 0.05 | 0.05 | 0.05 | 79 | 1008.0 |
| 20260507143904 | 16 | 289 | 0.0 | 3.2 | 0.03 | 0.05 | 0.05 | 78 | 1008.4 |
| 20260507143404 | 16 | 289 | 3.2 | 11.3 | 0.00 | 0.03 | 0.03 | 76 | 1008.5 |
| 20260507142904 | 17 | 280 | 3.2 | 8.0 | 0.00 | 0.03 | 0.03 | 77 | 1008.6 |
| 20260507142404 | 17 | 254 | 3.2 | 8.0 | 0.00 | 0.03 | 0.03 | 77 | 1008.5 |
| 20260507141903 | 17 | 330 | 3.2 | 9.7 | 0.00 | 0.03 | 0.03 | 77 | 1008.5 |
| 20260507140904 | 17 | 23 | 8.0 | 19.3 | 0.00 | 0.05 | 0.03 | 78 | 1008.1 |
| 20260507140404 | 17 | 17 | 16.1 | 22.5 | 0.00 | 0.08 | 0.03 | 77 | 1008.0 |
| 20260507135903 | 17 | 29 | 6.4 | 19.3 | 0.00 | 0.08 | 0.03 | 77 | 1008.0 |
| 20260507135403 | 17 | 50 | 4.8 | 16.1 | 0.00 | 0.10 | 0.03 | 77 | 1008.0 |
| 20260507134903 | 17 | 38 | 11.3 | 19.3 | 0.00 | 0.13 | 0.03 | 78 | 1008.0 |
| 20260507134403 | 16 | 39 | 11.3 | 22.5 | 0.00 | 0.13 | 0.03 | 80 | 1008.0 |
| 20260507133903 | 16 | 39 | 11.3 | 20.9 | 0.00 | 0.13 | 0.03 | 82 | 1008.0 |
| 20260507133403 | 17 | 23 | 14.5 | 20.9 | 0.00 | 0.13 | 0.03 | 82 | 1008.1 |
| 20260507132404 | 16 | 27 | 11.3 | 16.1 | 0.00 | 0.13 | 0.03 | 82 | 1008.4 |
| 20260507131903 | 17 | 43 | 4.8 | 8.0 | 0.00 | 0.13 | 0.03 | 81 | 1008.6 |
| 20260507131404 | 17 | 82 | 1.6 | 12.9 | 0.00 | 0.13 | 0.03 | 80 | 1008.6 |
| 20260507130904 | 17 | 75 | 1.6 | 14.5 | 0.00 | 0.13 | 0.03 | 79 | 1008.6 |
| 20260507125403 | 17 | 1 | 4.8 | 20.9 | 0.00 | 0.13 | 0.03 | 77 | 1008.7 |
| 20260507124904 | 17 | 65 | 3.2 | 16.1 | 0.00 | 0.13 | 0.03 | 77 | 1008.7 |
| 20260507124404 | 17 | 53 | 9.7 | 19.3 | 0.00 | 0.13 | 0.03 | 75 | 1008.7 |
| 20260507123903 | 17 | 43 | 6.4 | 14.5 | 0.00 | 0.13 | 0.03 | 75 | 1008.8 |
| 20260507123404 | 17 | 41 | 6.4 | 16.1 | 0.00 | 0.13 | 0.03 | 77 | 1008.7 |
| 20260507122904 | 17 | 351 | 9.7 | 19.3 | 0.00 | 0.13 | 0.03 | 79 | 1008.7 |
| 20260507122403 | 16 | 35 | 8.0 | 24.1 | 0.00 | 0.13 | 0.03 | 80 | 1008.8 |
| 20260507121404 | 17 | 11 | 11.3 | 19.3 | 0.00 | 0.13 | 0.03 | 79 | 1009.0 |
| 20260507120904 | 16 | 34 | 1.6 | 9.7 | 0.00 | 0.13 | 0.03 | 80 | 1009.1 |
| 20260507120404 | 16 | 5 | 1.6 | 4.8 | 0.00 | 0.13 | 0.03 | 80 | 1009.3 |
| 20260507115404 | 16 | 308 | 8.0 | 12.9 | 0.00 | 0.13 | 0.03 | 78 | 1009.3 |
| 20260507114904 | 16 | 5 | 0.0 | 3.2 | 0.00 | 0.13 | 0.03 | 78 | 1009.5 |
| 20260507114404 | 16 | 56 | 1.6 | 3.2 | 0.00 | 0.13 | 0.03 | 77 | 1009.6 |
| 20260507113903 | 16 | 57 | 1.6 | 4.8 | 0.00 | 0.13 | 0.03 | 77 | 1009.7 |
| 20260507113403 | 17 | 54 | 3.2 | 4.8 | 0.00 | 0.13 | 0.03 | 77 | 1009.7 |
| 20260507112904 | 17 | 90 | 3.2 | 8.0 | 0.00 | 0.13 | 0.03 | 76 | 1009.7 |
| 20260507112404 | 16 | 138 | 0.0 | 3.2 | 0.00 | 0.13 | 0.03 | 77 | 1009.7 |
| 20260507111905 | 16 | 137 | 3.2 | 4.8 | 0.00 | 0.13 | 0.03 | 78 | 1009.7 |